Franklin, PA

7:36 PM EST on December 10, 2019 (GMT -0500)
Venango Regional

Weather History for KFKL - August, 2019

Change the Weather History Date:

Tuesday, August 6, 2019

  Actual Average Record
Temperature  
Mean Temperature 73 °F -  
Max Temperature 84 °F 81 °F 96 °F (1931)
Min Temperature 64 °F 57 °F 44 °F (1934)
Cooling Degree Days 8    
Growing Degree Days 23 (Base 50)    
Moisture  
Dew Point 64 °F    
Average Humidity 89    
Maximum Humidity 100    
Minimum Humidity 53    
Precipitation  
Precipitation 0.29 in - - ()
Sea Level Pressure  
Sea Level Pressure 29.85 in    
Wind  
Wind Speed 6 mph (SSW)    
Max Wind Speed 10 mph    
Max Gust Speed 18 mph    
Visibility 9 miles    
Events Rain , Thunderstorm    
Averages and records for this station are not official NWS values.
T = Trace of Precipitation, MM = Missing Value Source: NWS Daily Summary

Daily Weather History Graph

Daily Weather History Graph

Search for Another Location

Airport or City:

Astronomy

Aug. 06, 2019 Rise Set
Actual Time 6:19 AM EDT 8:30 PM EDT
Civil Twilight 5:48 AM EDT 9:01 PM EDT
Nautical Twilight 5:10 AM EDT 9:38 PM EDT
Astronomical Twilight 4:29 AM EDT 10:20 PM EDT
Moon 12:46 PM EDT (8/6) No Moon Set
Length of Visible Light 15h 12m
Length of Day
14h 11m
Waxing Crescent, 38% of the Moon is Illuminated
Aug 6
Waxing Crescent
Aug 7
First Quarter
Aug 15
Full
Aug 23
Last Quarter
Aug 30
New

Hourly Weather History & Observations

Time (EDT) Temp. Heat Index Dew Point Humidity Pressure Visibility Wind Dir Wind Speed Gust Speed Precip Events Conditions
12:56 AM 66.9 °F - 63.0 °F 87% 29.92 in 10.0 mi SSW 4.6 mph - N/A   Partly Cloudy
1:56 AM 66.0 °F - 63.0 °F 90% 29.90 in 10.0 mi South 4.6 mph - N/A   Clear
2:56 AM 66.0 °F - 63.0 °F 90% 29.89 in 10.0 mi SSW 6.9 mph - N/A   Clear
3:56 AM 66.0 °F - 62.1 °F 87% 29.88 in 10.0 mi SSW 5.8 mph - N/A   Clear
4:56 AM 64.0 °F - 62.1 °F 93% 29.87 in 10.0 mi SSW 5.8 mph - N/A   Clear
5:56 AM 64.9 °F - 62.1 °F 90% 29.87 in 10.0 mi SW 4.6 mph - N/A   Clear
6:56 AM 66.0 °F - 63.0 °F 90% 29.87 in 10.0 mi SSW 5.8 mph - N/A   Clear
7:56 AM 69.1 °F - 64.0 °F 84% 29.88 in 10.0 mi SSW 6.9 mph - N/A   Clear
8:56 AM 72.0 °F - 64.9 °F 78% 29.88 in 10.0 mi SSW 5.8 mph - N/A   Clear
9:56 AM 75.0 °F - 66.0 °F 73% 29.87 in 10.0 mi SW 5.8 mph - N/A   Clear
10:56 AM 78.1 °F - 66.9 °F 68% 29.87 in 10.0 mi SW 6.9 mph - N/A   Clear
11:56 AM 81.0 °F 82.7 °F 64.9 °F 58% 29.86 in 10.0 mi WSW 9.2 mph - N/A   Partly Cloudy
12:56 PM 82.0 °F 83.4 °F 64.0 °F 54% 29.84 in 10.0 mi SW 9.2 mph - N/A   Partly Cloudy
1:56 PM 82.9 °F 84.4 °F 64.0 °F 53% 29.82 in 10.0 mi SSW 8.1 mph 17.3 mph N/A   Mostly Cloudy
2:56 PM 79.0 °F - 64.0 °F 60% 29.81 in 10.0 mi WNW 9.2 mph 18.4 mph N/A Thunderstorm Scattered Clouds
3:37 PM 66.2 °F - 66.2 °F 100% 29.86 in 4.0 mi Variable 4.6 mph - N/A Rain Heavy Rain
3:56 PM 66.9 °F - 66.0 °F 97% 29.83 in 10.0 mi Variable 4.6 mph - N/A Rain Light Rain
4:11 PM 66.2 °F - 64.4 °F 94% 29.86 in 10.0 mi WNW 10.4 mph - 0.00 in Thunderstorm Overcast
4:25 PM 66.2 °F - 64.4 °F 94% 29.88 in 8.0 mi NW 10.4 mph - 0.06 in Rain , Thunderstorm Heavy Thunderstorms and Rain
4:56 PM 64.9 °F - 64.0 °F 97% 29.85 in 9.0 mi NW 5.8 mph - 0.20 in Rain , Thunderstorm Light Rain
5:10 PM 64.4 °F - 64.4 °F 100% 29.87 in 8.0 mi NW 4.6 mph - 0.03 in Rain , Thunderstorm Thunderstorms and Rain
5:26 PM 64.4 °F - 64.4 °F 100% 29.87 in 9.0 mi NNE 5.8 mph - 0.05 in Rain Rain
5:56 PM 66.0 °F - 64.9 °F 96% 29.83 in 10.0 mi SE 9.2 mph - 0.07 in   Mostly Cloudy
6:10 PM 66.2 °F - 64.4 °F 94% 29.85 in 10.0 mi Variable 3.5 mph - N/A   Mostly Cloudy
6:19 PM 66.2 °F - 64.4 °F 94% 29.89 in 10.0 mi West 10.4 mph - N/A Thunderstorm Overcast
6:54 PM 64.4 °F - 64.4 °F 100% 29.86 in 7.0 mi NNE 6.9 mph - N/A Rain Rain
6:56 PM 64.9 °F - 64.0 °F 97% 29.84 in 8.0 mi NNE 6.9 mph - N/A Rain Rain
7:13 PM 66.2 °F - 64.4 °F 94% 29.86 in 10.0 mi East 4.6 mph - 0.01 in Rain Light Rain
7:56 PM 66.0 °F - 64.9 °F 96% 29.83 in 10.0 mi East 4.6 mph - 0.01 in   Scattered Clouds
8:56 PM 64.9 °F - 64.0 °F 97% 29.82 in 10.0 mi ESE 3.5 mph - N/A   Scattered Clouds
9:29 PM 64.4 °F - 64.4 °F 100% 29.85 in 10.0 mi Calm Calm - N/A   Overcast
9:56 PM 64.9 °F - 64.0 °F 97% 29.83 in 10.0 mi South 5.8 mph - 0.00 in   Mostly Cloudy
10:03 PM 64.4 °F - 64.4 °F 100% 29.85 in 9.0 mi South 4.6 mph - N/A   Mostly Cloudy
10:56 PM 64.9 °F - 64.0 °F 97% 29.81 in 10.0 mi East 3.5 mph - 0.01 in   Overcast
11:14 PM 64.4 °F - 64.4 °F 100% 29.83 in 1.0 mi ESE 4.6 mph - N/A   Overcast
11:17 PM 64.4 °F - 64.4 °F 100% 29.83 in 2.0 mi ESE 4.6 mph - N/A   Overcast
11:32 PM 64.4 °F - 64.4 °F 100% 29.83 in 6.0 mi ESE 5.8 mph - N/A   Overcast
11:56 PM 64.9 °F - 64.0 °F 97% 29.80 in 7.0 mi SE 4.6 mph - N/A   Overcast